Location: Haram ta Haram Freeway
(35.0583°N, 51.4202°E)
Time: 10:22:23
(UTC+04:30)

ISS - Pass Details

Date: 14 July 2022
Orbit: 412 x 420 km, 51.6° (Epoch: 15 August)

Event Time Altitude Azimuth Distance (km) Brightness Sun altitude
Rises 21:46:05 0° 248° (WSW) 2,332 0.4 -15.5°
Reaches altitude 10° 21:48:18 10° 258° (WSW) 1,475 -0.5 -15.8°
Maximum altitude 21:51:19 32° 324° (NW) 736 -1.8 -16.3°
Drops below altitude 10° 21:54:21 10° 29° (NNE) 1,485 -0.8 -16.7°
Sets 21:56:35 0° 40° (NE) 2,352 0.1 -17.1°
